Regional Weather Roundup
Issued by NWS

Current Version | Previous Version | Text Only | Print | Product List | Glossary On
Versions: 1 2 3 4 5 6 7 8 9 10 11 12 13 14 15 16 17 18 19 20 21 22 23 24 25 26 27 28 29 30 31 32 33 34 35 36 37 38 39 40 41 42 43 44 45 46 47 48 49 50
000
ASCA44 KEWX 240920
RWRMX

LATIN AMERICA AND CARIBBEAN REGIONAL WEATHER ROUNDUP
NATIONAL WEATHER SERVICE AUSTIN/SAN ANTONIO TX
400 AM CDT SUN SEP 24 2017

NOTE: "FAIR" INDICATED FEW OR NO CLOUDS BELOW 12,000 FEET WITH NO
SIGNIFICANT WEATHER AND/OR OBSTRUCTIONS TO VISIBILITY.

BAJA CALIFORNIA

CITY           SKY/WX    TMP DP  RH WIND       PRES   REMARKS
MEXICALI         N/A    N/A N/A N/A MISG        N/A
S.J. DEL CABO    N/A    N/A N/A N/A MISG        N/A
TIJUANA        CLEAR     59  54  82 CALM      29.87

NORTHWESTERN MEXICO

CITY           SKY/WX    TMP DP  RH WIND       PRES   REMARKS
HERMOSILLO     CLEAR     70  52  52 CALM      29.76

NORTHEASTERN MEXICO

CITY           SKY/WX    TMP DP  RH WIND       PRES   REMARKS
MONCLOVA         N/A    N/A N/A N/A MISG        N/A
MONTERREY      CLOUDY    75  68  78 E9        29.81F
REYNOSA          N/A    N/A N/A N/A MISG        N/A
SALTILLO       CLEAR     63  52  67 NE7       30.01
CD. VICTORIA     N/A    N/A N/A N/A MISG        N/A

WESTERN MEXICO

CITY           SKY/WX    TMP DP  RH WIND       PRES   REMARKS
AGUASCALIENTES   N/A    N/A N/A N/A MISG        N/A
COLIMA           N/A    N/A N/A N/A MISG        N/A
GUADALAJARA    MOCLDY    64  59  82 SE7       30.01F
MAZATLAN       CLOUDY    79  77  94 CALM      29.68F
P. VALLARTA    CLOUDY    77  77 100 CALM      29.69F
URUAPAN          N/A    N/A N/A N/A MISG        N/A
ZACATECAS      MOCLDY    57  52  82 SW7       30.12

CENTRAL MEXICO

CITY           SKY/WX    TMP DP  RH WIND       PRES   REMARKS
CUERNAVACA       N/A    N/A N/A N/A MISG        N/A
MEXICO CITY    MOCLDY    61  54  77 W5        30.19F
MORELIA        MOCLDY    59  59 100 CALM      30.08F
POZA RICA        N/A    N/A N/A N/A MISG        N/A
S. LUIS POTOSI MOCLDY    63  54  72 CALM      30.10
TOLUCA         MOCLDY    55  52  88 SE7       30.24

SOUTHERN MEXICO

CITY           SKY/WX    TMP DP  RH WIND       PRES   REMARKS
ACAPULCO       MOCLDY    81  77  89 NW7       29.77F
B. DE HUATULCO   N/A    N/A N/A N/A MISG        N/A
P. ESCONDIDO     N/A    N/A N/A N/A MISG        N/A
VERACRUZ         N/A    N/A N/A N/A MISG        N/A

YUCATAN PENINSULA

CITY           SKY/WX    TMP DP  RH WIND       PRES   REMARKS
CAMPECHE         N/A    N/A N/A N/A MISG        N/A
CANCUN         LGT RAIN  77  77 100 CALM      29.81F
CHETUMAL       DRIZZLE   79  77  94 CALM      29.79
CD. DEL CARMEN   N/A    N/A N/A N/A MISG        N/A
COZUMEL        CLEAR     75  73  94 CALM      29.79F
MERIDA         CLEAR     75  73  94 E6        29.80F
MINATITLAN       N/A    N/A N/A N/A MISG        N/A
TAPACHULA      MOCLDY    75  73  94 CALM      29.77F

CENTRAL AMERICA

CITY           SKY/WX    TMP DP  RH WIND       PRES   REMARKS
MANAGUA        MOSUNNY   77  75  94 CALM      29.74F

CARIBBEAN

CITY           SKY/WX    TMP DP  RH WIND       PRES   REMARKS
ARUBA          PTCLDY    84  79  84 E13       29.77S HX  96
CURACAO        PTCLDY    84  77  79 SE9       29.83S HX  94
KINGSTON       PTCLDY    84  75  74 S3        29.80S HX  92
NASSAU         MOCLDY    84  77  79 W5        29.78S HX  94
SAN JUAN       PTCLDY    81  81 100 E6        29.90  HX  91
SANTO DOMINGO  TSTM      77  77 100 CALM      29.86S

$$





USA.gov is the U.S. government's official web portal to all federal, state and local government web resources and services.